Tracking 19149 objects as of 21-Apr-2018
HD Live streaming from Space Station
objects crossing your sky now

FENGYUN 1C DEB

Track FENGYUN 1C DEB now!
10-day predictions


NORAD ID: 38162
Int'l Code: 1999-025ERK
Perigee: 692.1 km
Apogee: 1,026.9 km
Inclination: 99.8 °
Period: 102.0 minutes
Semi major axis: 7230 km
RCS: 0.0023 m2 (small)
Launch date: May 10, 1999
Source: People's Republic of China (PRC)
Launch site: Taiyaun Space Center, China (TSC)

Note: This is SATELLITE DEBRIS
aabbcc
Your satellite tracking list
Your tracking list is empty




NASA's NSSDC Master Catalog

Two Line Element Set (TLE):
1 38162U 99025ERK 18110.11231026 +.00000389 +00000-0 +18826-3 0  9990
2 38162 099.8022 070.8585 0231527 348.8719 010.7379 14.12064493441735
Source of the keplerian elements: AFSPC